Simultaneous Nadir Overpasses (SNOs) Predictions

Prediction of SNOs between GOES-15 and METOP-B Satellite Orbit:

Table of predicted SNOs for the next 14.0 days since TLE Epoch: 12/31/2023
Index Date Time (GOES-15) GOES-15 Lat,Lon METOP-B Lat,Lon Distance(km) Time Diff (sec)
1 12/31/2023 17:38:08 0.06, 61.38 -0.78, 57.56 434.66 80
2 01/01/2024 17:14:52 0.07, 61.40 0.34, 62.54 130.68 80
3 01/03/2024 05:33:47 -0.06, 61.37 0.71, 57.96 388.94 80
4 01/04/2024 05:15:50 -0.06, 61.38 -0.41, 62.94 177.33 80
5 01/05/2024 17:34:55 0.05, 61.44 -0.64, 58.32 355.71 80
6 01/06/2024 17:11:38 0.06, 61.47 0.49, 63.30 209.02 80
7 01/08/2024 05:30:34 -0.05, 61.46 0.54, 58.71 312.92 80
8 01/09/2024 05:12:36 -0.05, 61.48 -0.53, 63.70 252.45 80
9 01/10/2024 17:31:40 0.04, 61.55 -0.51, 59.08 281.05 80
10 01/11/2024 17:08:24 0.05, 61.58 0.63, 64.06 282.85 80
11 01/13/2024 05:27:18 -0.04, 61.60 0.46, 59.49 241.24 80
